| time (UTC) | temp F | wind direction | speed knots | gust knots | rain 1hr in | rain 24hr in | rain mn in | humidity % | barometer mb |
| 20260903205517 | 69 | 225 | 4.3 | 9.6 | 0.00 | 0.00 | 0.00 | 79 | 1017.1 |
| 20260903204523 | 69 | 225 | 3.5 | 7.8 | 0.00 | 0.00 | 0.00 | 79 | 1017.2 |
| 20260903203519 | 69 | 225 | 4.3 | 7.8 | 0.00 | 0.00 | 0.00 | 79 | 1017.4 |
| 20260903202517 | 69 | 225 | 3.5 | 7.8 | 0.00 | 0.00 | 0.00 | 78 | 1017.6 |
| 20260903201521 | 69 | 248 | 3.5 | 7.0 | 0.00 | 0.00 | 0.00 | 78 | 1017.8 |
| 20260903200518 | 69 | 225 | 5.2 | 10.4 | 0.00 | 0.00 | 0.00 | 77 | 1017.7 |
| 20260903195517 | 69 | 225 | 5.2 | 8.7 | 0.00 | 0.00 | 0.00 | 77 | 1017.6 |
| 20260903194519 | 69 | 225 | 6.1 | 10.4 | 0.00 | 0.00 | 0.00 | 77 | 1017.9 |
| 20260903193518 | 69 | 248 | 4.3 | 12.2 | 0.00 | 0.00 | 0.00 | 77 | 1017.9 |
| 20260903192541 | 69 | 248 | 7.0 | 13.0 | 0.00 | 0.00 | 0.00 | 77 | 1018.0 |
| 20260903191537 | 69 | 248 | 6.1 | 12.2 | 0.00 | 0.00 | 0.00 | 77 | 1017.9 |
| 20260903190538 | 69 | 225 | 6.1 | 10.4 | 0.00 | 0.00 | 0.00 | 77 | 1017.7 |
| 20260903185518 | 69 | 225 | 5.2 | 9.6 | 0.00 | 0.00 | 0.00 | 76 | 1017.9 |
| 20260903184517 | 70 | 248 | 7.0 | 13.9 | 0.00 | 0.00 | 0.00 | 75 | 1018.1 |
| 20260903183523 | 71 | 248 | 7.0 | 11.3 | 0.00 | 0.00 | 0.00 | 75 | 1018.4 |
| 20260903182539 | 72 | 248 | 6.1 | 12.2 | 0.00 | 0.00 | 0.00 | 74 | 1018.6 |
| 20260903181518 | 73 | 248 | 8.7 | 19.1 | 0.00 | 0.00 | 0.00 | 72 | 1018.4 |
| 20260903180559 | 74 | 248 | 7.0 | 12.2 | 0.00 | 0.00 | 0.00 | 74 | 1018.2 |
| 20260903175518 | 74 | 225 | 7.0 | 13.0 | 0.00 | 0.00 | 0.00 | 72 | 1017.9 |
| 20260903174518 | 75 | 225 | 6.1 | 13.0 | 0.00 | 0.00 | 0.00 | 71 | 1017.9 |
| 20260903173518 | 75 | 225 | 7.8 | 14.8 | 0.00 | 0.00 | 0.00 | 70 | 1017.8 |
| 20260903172518 | 75 | 225 | 6.1 | 11.3 | 0.00 | 0.00 | 0.00 | 70 | 1017.7 |
| 20260903171518 | 76 | 225 | 7.8 | 13.9 | 0.00 | 0.00 | 0.00 | 70 | 1017.8 |
| 20260903170518 | 76 | 248 | 6.1 | 12.2 | 0.00 | 0.00 | 0.00 | 69 | 1017.9 |
| 20260903165517 | 76 | 248 | 8.7 | 14.8 | 0.00 | 0.00 | 0.00 | 68 | 1017.8 |
| 20260903164517 | 76 | 248 | 8.7 | 16.5 | 0.00 | 0.00 | 0.00 | 67 | 1017.9 |
| 20260903163517 | 77 | 248 | 7.0 | 16.5 | 0.00 | 0.00 | 0.00 | 66 | 1017.9 |
| 20260903162517 | 78 | 248 | 6.1 | 14.8 | 0.00 | 0.00 | 0.00 | 65 | 1018.2 |
| 20260903161520 | 78 | 248 | 7.0 | 13.9 | 0.00 | 0.00 | 0.00 | 65 | 1018.0 |
| 20260903160520 | 78 | 248 | 8.7 | 15.6 | 0.00 | 0.00 | 0.00 | 63 | 1018.2 |
| 20260903155518 | 79 | 270 | 10.4 | 22.6 | 0.00 | 0.00 | 0.00 | 63 | 1018.5 |
| 20260903154541 | 78 | 248 | 8.7 | 20.0 | 0.00 | 0.00 | 0.00 | 65 | 1018.6 |
| 20260903153520 | 78 | 248 | 7.0 | 13.0 | 0.00 | 0.00 | 0.00 | 65 | 1018.7 |
| 20260903152519 | 78 | 248 | 7.0 | 14.8 | 0.00 | 0.00 | 0.00 | 65 | 1018.9 |
| 20260903151517 | 78 | 248 | 9.6 | 20.0 | 0.00 | 0.00 | 0.00 | 65 | 1018.9 |
| 20260903150525 | 77 | 225 | 7.0 | 15.6 | 0.00 | 0.00 | 0.00 | 66 | 1019.2 |
| 20260903145520 | 77 | 248 | 7.8 | 15.6 | 0.00 | 0.00 | 0.00 | 67 | 1019.2 |
| 20260903144540 | 76 | 225 | 7.8 | 13.0 | 0.00 | 0.00 | 0.00 | 67 | 1019.3 |
| 20260903143518 | 77 | 248 | 8.7 | 15.6 | 0.00 | 0.00 | 0.00 | 66 | 1019.4 |
| 20260903142520 | 76 | 225 | 6.1 | 12.2 | 0.00 | 0.00 | 0.00 | 67 | 1019.4 |
| 20260903141517 | 76 | 248 | 10.4 | 19.1 | 0.00 | 0.00 | 0.00 | 66 | 1019.4 |
| 20260903140522 | 76 | 270 | 7.0 | 15.6 | 0.00 | 0.00 | 0.00 | 66 | 1019.4 |
| 20260903135518 | 76 | 248 | 7.0 | 13.9 | 0.00 | 0.00 | 0.00 | 66 | 1019.5 |
| 20260903134520 | 76 | 225 | 7.0 | 13.0 | 0.00 | 0.00 | 0.00 | 65 | 1019.5 |
| 20260903133520 | 77 | 248 | 10.4 | 19.1 | 0.00 | 0.00 | 0.00 | 64 | 1019.5 |
| 20260903132539 | 76 | 225 | 6.1 | 12.2 | 0.00 | 0.00 | 0.00 | 66 | 1019.7 |
| 20260903131519 | 76 | 248 | 8.7 | 16.5 | 0.00 | 0.00 | 0.00 | 66 | 1019.8 |
| 20260903130520 | 77 | 248 | 8.7 | 14.8 | 0.00 | 0.00 | 0.00 | 64 | 1019.6 |
| 20260903125518 | 78 | 225 | 9.6 | 17.4 | 0.00 | 0.00 | 0.00 | 62 | 1019.4 |
| 20260903124518 | 78 | 248 | 10.4 | 17.4 | 0.00 | 0.00 | 0.00 | 62 | 1019.3 |
| 20260903123518 | 77 | 248 | 8.7 | 15.6 | 0.00 | 0.00 | 0.00 | 67 | 1019.5 |
| 20260903122519 | 77 | 248 | 8.7 | 16.5 | 0.00 | 0.00 | 0.00 | 68 | 1019.4 |
| 20260903121519 | 77 | 248 | 7.0 | 14.8 | 0.00 | 0.00 | 0.00 | 68 | 1019.4 |
| 20260903120538 | 77 | 225 | 12.2 | 20.9 | 0.00 | 0.00 | 0.00 | 68 | 1019.6 |
| 20260903115519 | 77 | 248 | 9.6 | 18.2 | 0.00 | 0.00 | 0.00 | 69 | 1019.5 |
| 20260903114522 | 77 | 225 | 7.8 | 16.5 | 0.00 | 0.00 | 0.00 | 70 | 1019.4 |
| 20260903113519 | 76 | 248 | 7.8 | 13.0 | 0.00 | 0.00 | 0.00 | 71 | 1019.4 |
| 20260903112521 | 75 | 225 | 6.1 | 12.2 | 0.00 | 0.00 | 0.00 | 72 | 1019.6 |
| 20260903111520 | 75 | 225 | 8.7 | 14.8 | 0.00 | 0.00 | 0.00 | 73 | 1019.5 |
| 20260903110542 | 75 | 248 | 8.7 | 14.8 | 0.00 | 0.00 | 0.00 | 72 | 1019.4 |
| 20260903105523 | 76 | 248 | 7.0 | 11.3 | 0.00 | 0.00 | 0.00 | 72 | 1019.4 |
| 20260903104520 | 76 | 248 | 7.8 | 14.8 | 0.00 | 0.00 | 0.00 | 70 | 1019.4 |
| 20260903103518 | 76 | 225 | 7.0 | 11.3 | 0.00 | 0.00 | 0.00 | 72 | 1019.5 |
| 20260903102542 | 74 | 248 | 5.2 | 9.6 | 0.00 | 0.00 | 0.00 | 77 | 1019.3 |
| 20260903101520 | 73 | 225 | 6.1 | 11.3 | 0.00 | 0.00 | 0.00 | 79 | 1019.3 |
| 20260903100522 | 72 | 225 | 4.3 | 10.4 | 0.00 | 0.00 | 0.00 | 81 | 1019.3 |
| 20260903095520 | 71 | 225 | 5.2 | 9.6 | 0.00 | 0.00 | 0.00 | 82 | 1019.4 |
| 20260903094542 | 71 | 225 | 4.3 | 8.7 | 0.00 | 0.00 | 0.00 | 84 | 1019.6 |
| 20260903093519 | 70 | 225 | 5.2 | 10.4 | 0.00 | 0.00 | 0.00 | 85 | 1019.6 |
| 20260903092518 | 69 | 225 | 1.7 | 3.5 | 0.00 | 0.00 | 0.00 | 88 | 1019.3 |
| 20260903091521 | 68 | 225 | 3.5 | 7.0 | 0.00 | 0.00 | 0.00 | 87 | 1019.4 |
| 20260903090519 | 68 | 248 | 3.5 | 7.8 | 0.00 | 0.00 | 0.00 | 87 | 1019.7 |
| 20260903085539 | 68 | 248 | 4.3 | 7.8 | 0.00 | 0.00 | 0.00 | 86 | 1019.4 |
| 20260903084518 | 68 | 248 | 2.6 | 6.1 | 0.00 | 0.00 | 0.00 | 85 | 1019.5 |
| 20260903083522 | 68 | 248 | 3.5 | 7.0 | 0.00 | 0.00 | 0.00 | 83 | 1019.5 |
| 20260903082520 | 69 | 225 | 4.3 | 8.7 | 0.00 | 0.00 | 0.00 | 82 | 1019.5 |
| 20260903081518 | 69 | 248 | 5.2 | 10.4 | 0.00 | 0.00 | 0.00 | 81 | 1019.3 |
| 20260903080518 | 69 | 225 | 6.1 | 11.3 | 0.00 | 0.00 | 0.00 | 81 | 1019.3 |
| 20260903075519 | 69 | 225 | 5.2 | 11.3 | 0.00 | 0.01 | 0.00 | 81 | 1019.2 |
| 20260903074521 | 69 | 248 | 5.2 | 10.4 | 0.00 | 0.01 | 0.00 | 81 | 1019.2 |
| 20260903073518 | 69 | 225 | 5.2 | 10.4 | 0.00 | 0.01 | 0.00 | 81 | 1019.0 |
| 20260903072519 | 68 | 225 | 5.2 | 11.3 | 0.00 | 0.01 | 0.00 | 83 | 1018.9 |
| 20260903071519 | 68 | 225 | 6.1 | 11.3 | 0.00 | 0.01 | 0.00 | 84 | 1018.5 |
| 20260903070519 | 67 | 225 | 7.0 | 13.0 | 0.00 | 0.01 | 0.00 | 85 | 1018.9 |
| 20260903065519 | 67 | 225 | 7.0 | 12.2 | 0.00 | 0.01 | 0.00 | 86 | 1018.8 |
| 20260903064539 | 66 | 225 | 5.2 | 12.2 | 0.00 | 0.01 | 0.00 | 86 | 1018.6 |
| 20260903063519 | 66 | 225 | 3.5 | 8.7 | 0.00 | 0.01 | 0.00 | 87 | 1018.5 |
| 20260903062619 | 66 | 225 | 7.0 | 12.2 | 0.00 | 0.01 | 0.00 | 87 | 1018.8 |
| 20260903061538 | 66 | 225 | 6.1 | 10.4 | 0.00 | 0.01 | 0.00 | 88 | 1018.7 |
| 20260903060518 | 66 | 225 | 3.5 | 7.8 | 0.00 | 0.01 | 0.00 | 88 | 1018.7 |
| 20260903055517 | 66 | 225 | 2.6 | 6.1 | 0.00 | 0.01 | 0.00 | 88 | 1018.6 |
| 20260903054518 | 66 | 225 | 4.3 | 10.4 | 0.00 | 0.01 | 0.00 | 87 | 1018.7 |
| 20260903053519 | 66 | 225 | 5.2 | 9.6 | 0.00 | 0.01 | 0.00 | 87 | 1018.6 |
| 20260903052517 | 66 | 225 | 5.2 | 9.6 | 0.00 | 0.01 | 0.00 | 87 | 1018.7 |
| 20260903051523 | 65 | 248 | 4.3 | 9.6 | 0.00 | 0.01 | 0.00 | 86 | 1018.7 |
| 20260903050518 | 66 | 225 | 4.3 | 8.7 | 0.00 | 0.01 | 0.00 | 86 | 1018.4 |
| 20260903045534 | 66 | 225 | 5.2 | 10.4 | 0.00 | 0.01 | 0.00 | 86 | 1018.5 |
| 20260903044543 | 66 | 248 | 5.2 | 9.6 | 0.00 | 0.01 | 0.00 | 86 | 1018.4 |
| 20260903043522 | 66 | 225 | 6.1 | 13.0 | 0.00 | 0.01 | 0.00 | 86 | 1018.2 |
| 20260903042520 | 66 | 225 | 6.1 | 12.2 | 0.00 | 0.01 | 0.00 | 87 | 1018.2 |
| 20260903041519 | 66 | 225 | 7.0 | 12.2 | 0.00 | 0.01 | 0.00 | 87 | 1018.0 |
| 20260903040518 | 66 | 248 | 7.0 | 13.0 | 0.00 | 0.01 | 0.00 | 86 | 1018.0 |
| 20260903035521 | 66 | 225 | 6.1 | 11.3 | 0.00 | 0.01 | 0.00 | 86 | 1017.8 |
| 20260903034521 | 66 | 248 | 7.8 | 13.9 | 0.00 | 0.01 | 0.00 | 86 | 1018.0 |
| 20260903033540 | 66 | 248 | 6.1 | 10.4 | 0.00 | 0.01 | 0.00 | 87 | 1018.2 |
| 20260903032517 | 66 | 248 | 5.2 | 10.4 | 0.00 | 0.01 | 0.00 | 87 | 1018.1 |
| 20260903031538 | 66 | 248 | 5.2 | 11.3 | 0.00 | 0.01 | 0.00 | 87 | 1018.0 |
| 20260903030519 | 66 | 225 | 6.1 | 11.3 | 0.00 | 0.01 | 0.00 | 86 | 1017.9 |
| 20260903025518 | 66 | 225 | 6.1 | 12.2 | 0.00 | 0.01 | 0.00 | 86 | 1018.0 |
| 20260903024518 | 66 | 225 | 5.2 | 8.7 | 0.00 | 0.01 | 0.00 | 86 | 1018.0 |
| 20260903023537 | 66 | 225 | 3.5 | 8.7 | 0.00 | 0.01 | 0.00 | 86 | 1018.1 |
| 20260903022520 | 66 | 225 | 4.3 | 11.3 | 0.00 | 0.01 | 0.00 | 86 | 1018.1 |
| 20260903021518 | 66 | 225 | 3.5 | 7.8 | 0.00 | 0.01 | 0.00 | 85 | 1018.2 |
| 20260903020521 | 66 | 225 | 4.3 | 11.3 | 0.00 | 0.01 | 0.00 | 85 | 1018.2 |
| 20260903015519 | 67 | 225 | 4.3 | 8.7 | 0.00 | 0.01 | 0.00 | 85 | 1018.3 |
| 20260903014539 | 67 | 225 | 3.5 | 7.0 | 0.00 | 0.01 | 0.00 | 85 | 1018.2 |
| 20260903013518 | 67 | 225 | 1.7 | 4.3 | 0.00 | 0.01 | 0.00 | 85 | 1018.3 |
| 20260903012520 | 67 | 225 | 4.3 | 8.7 | 0.00 | 0.01 | 0.00 | 85 | 1018.0 |
| 20260903011520 | 67 | 225 | 4.3 | 9.6 | 0.00 | 0.01 | 0.00 | 85 | 1018.1 |
| 20260903010518 | 67 | 225 | 4.3 | 9.6 | 0.00 | 0.01 | 0.00 | 85 | 1018.0 |
| 20260903005517 | 67 | 225 | 4.3 | 8.7 | 0.00 | 0.01 | 0.00 | 85 | 1018.2 |
| 20260903004520 | 67 | 225 | 5.2 | 9.6 | 0.00 | 0.01 | 0.00 | 84 | 1018.1 |
| 20260903003518 | 66 | 225 | 3.5 | 7.8 | 0.00 | 0.01 | 0.00 | 84 | 1018.4 |
| 20260903002518 | 66 | 225 | 5.2 | 12.2 | 0.00 | 0.01 | 0.00 | 84 | 1018.5 |
| 20260903001538 | 66 | 225 | 4.3 | 10.4 | 0.00 | 0.01 | 0.00 | 84 | 1018.4 |
| 20260903000521 | 66 | 225 | 4.3 | 9.6 | 0.00 | 0.01 | 0.00 | 84 | 1018.3 |
| 20260902235540 | 66 | 225 | 4.3 | 12.2 | 0.00 | 0.01 | 0.00 | 84 | 1018.4 |
| 20260902234518 | 66 | 225 | 4.3 | 7.8 | 0.00 | 0.01 | 0.00 | 84 | 1018.6 |
| 20260902233520 | 66 | 248 | 4.3 | 10.4 | 0.00 | 0.01 | 0.00 | 83 | 1018.6 |
| 20260902232521 | 66 | 225 | 6.1 | 11.3 | 0.00 | 0.01 | 0.00 | 83 | 1018.6 |
| 20260902231522 | 66 | 248 | 5.2 | 10.4 | 0.00 | 0.01 | 0.00 | 83 | 1018.8 |
| 20260902230521 | 66 | 225 | 3.5 | 7.0 | 0.00 | 0.01 | 0.00 | 83 | 1018.7 |
| 20260902225522 | 66 | 225 | 4.3 | 9.6 | 0.00 | 0.01 | 0.01 | 83 | 1018.6 |
| 20260902224520 | 66 | 225 | 4.3 | 8.7 | 0.00 | 0.01 | 0.01 | 83 | 1018.7 |
| 20260902223520 | 66 | 225 | 5.2 | 12.2 | 0.00 | 0.01 | 0.01 | 82 | 1018.7 |
| 20260902222539 | 66 | 225 | 4.3 | 9.6 | 0.00 | 0.01 | 0.01 | 82 | 1019.0 |
| 20260902221518 | 66 | 225 | 5.2 | 9.6 | 0.00 | 0.01 | 0.01 | 82 | 1018.8 |
| 20260902220521 | 66 | 225 | 6.1 | 12.2 | 0.00 | 0.01 | 0.01 | 82 | 1018.8 |
| 20260902215519 | 67 | 225 | 5.2 | 10.4 | 0.00 | 0.01 | 0.01 | 81 | 1018.7 |
| 20260902214521 | 67 | 225 | 6.1 | 9.6 | 0.00 | 0.01 | 0.01 | 81 | 1018.8 |
| 20260902213531 | 67 | 225 | 6.1 | 10.4 | 0.00 | 0.01 | 0.01 | 81 | 1018.7 |
| 20260902212517 | 66 | 225 | 5.2 | 9.6 | 0.00 | 0.01 | 0.01 | 81 | 1018.8 |
| 20260902211517 | 67 | 225 | 6.1 | 11.3 | 0.00 | 0.01 | 0.01 | 81 | 1018.6 |
| 20260902210520 | 66 | 248 | 6.1 | 14.8 | 0.00 | 0.01 | 0.01 | 81 | 1018.5 |